TimeMDT,TemperatureF,Dew PointF,Humidity,Sea Level PressureIn,VisibilityMPH,Wind Direction,Wind SpeedMPH,Gust SpeedMPH,PrecipitationIn,Events,Conditions,WindDirDegrees,DateUTC
12:53 AM,66.0,28.9,25,29.72,10.0,Variable,3.5,-,N/A,,Clear,0,2013-05-18 06:53:00
1:53 AM,60.1,30.9,33,29.73,10.0,ENE,5.8,-,N/A,,Scattered Clouds,70,2013-05-18 07:53:00
2:53 AM,60.1,33.1,36,29.73,10.0,Calm,Calm,-,N/A,,Overcast,0,2013-05-18 08:53:00
3:53 AM,60.1,33.1,36,29.73,10.0,Calm,Calm,-,N/A,,Overcast,0,2013-05-18 09:53:00
4:53 AM,61.0,32.0,34,29.75,10.0,WSW,3.5,-,N/A,,Overcast,250,2013-05-18 10:53:00
5:53 AM,60.1,36.0,41,29.77,10.0,West,5.8,-,N/A,,Mostly Cloudy,270,2013-05-18 11:53:00
6:53 AM,59.0,37.0,44,29.78,10.0,NE,3.5,-,N/A,,Mostly Cloudy,50,2013-05-18 12:53:00
7:53 AM,60.1,36.0,41,29.79,10.0,ENE,4.6,-,N/A,,Partly Cloudy,70,2013-05-18 13:53:00
8:53 AM,64.0,34.0,33,29.80,10.0,Calm,Calm,-,N/A,,Mostly Cloudy,0,2013-05-18 14:53:00
9:53 AM,64.9,36.0,34,29.80,10.0,SE,4.6,-,0.00,Rain,Light Rain,140,2013-05-18 15:53:00
10:40 AM,64.4,35.6,34,29.94,10.0,Variable,3.5,-,0.00,Thunderstorm,Thunderstorm,0,2013-05-18 16:40:00
10:53 AM,64.9,35.1,33,29.77,10.0,WNW,4.6,-,0.00,Thunderstorm,Thunderstorm,290,2013-05-18 16:53:00
11:18 AM,66.2,35.6,32,29.93,10.0,NW,5.8,-,N/A,,Mostly Cloudy,310,2013-05-18 17:18:00
11:25 AM,64.4,35.6,34,29.93,10.0,NE,5.8,-,N/A,Thunderstorm,Thunderstorm,40,2013-05-18 17:25:00
11:53 AM,64.0,45.0,50,29.76,10.0,East,6.9,21.9,0.02,Thunderstorm,Thunderstorm,100,2013-05-18 17:53:00
12:25 PM,64.4,39.2,40,29.91,10.0,NNE,10.4,-,N/A,,Mostly Cloudy,30,2013-05-18 18:25:00
12:53 PM,66.2,39.2,37,29.90,10.0,NE,8.1,-,N/A,,Mostly Cloudy,50,2013-05-18 18:53:00
1:08 PM,66.2,37.4,35,29.89,10.0,Variable,3.5,-,N/A,Thunderstorm,Thunderstorm,0,2013-05-18 19:08:00
1:44 PM,57.2,44.6,63,29.90,10.0,ESE,12.7,-,0.00,Rain-Thunderstorm,Light Thunderstorms and Rain,120,2013-05-18 19:44:00
1:53 PM,57.9,46.0,65,29.78,10.0,SE,11.5,-,0.00,Thunderstorm,Thunderstorm,130,2013-05-18 19:53:00
2:21 PM,57.2,44.6,63,29.91,10.0,SSE,15.0,-,0.00,,Mostly Cloudy,150,2013-05-18 20:21:00
2:53 PM,57.0,43.0,59,29.79,10.0,South,13.8,-,0.01,Rain,Light Rain,170,2013-05-18 20:53:00
3:04 PM,57.2,42.8,59,29.93,10.0,South,11.5,-,0.00,Thunderstorm,Thunderstorm,180,2013-05-18 21:04:00
3:51 PM,55.4,41.0,58,29.94,10.0,SSW,23.0,28.8,0.03,,Mostly Cloudy,200,2013-05-18 21:51:00
3:53 PM,57.0,41.0,55,29.81,10.0,South,24.2,32.2,0.03,,Mostly Cloudy,190,2013-05-18 21:53:00
4:53 PM,57.0,42.1,57,29.79,10.0,ESE,12.7,-,N/A,,Mostly Cloudy,110,2013-05-18 22:53:00
5:53 PM,60.1,41.0,49,29.77,10.0,East,15.0,-,N/A,,Mostly Cloudy,100,2013-05-18 23:53:00
6:53 PM,61.0,41.0,48,29.77,10.0,NE,9.2,-,N/A,,Partly Cloudy,40,2013-05-19 00:53:00
7:53 PM,57.9,39.9,51,29.79,10.0,NE,9.2,-,N/A,,Clear,40,2013-05-19 01:53:00
8:53 PM,55.9,37.9,51,29.81,10.0,NNE,17.3,-,N/A,,Scattered Clouds,30,2013-05-19 02:53:00
9:53 PM,55.0,39.0,55,29.83,10.0,NNE,9.2,-,N/A,,Mostly Cloudy,30,2013-05-19 03:53:00
10:53 PM,50.0,42.1,74,29.85,10.0,ESE,5.8,-,N/A,,Mostly Cloudy,110,2013-05-19 04:53:00
11:53 PM,51.1,39.9,66,29.84,10.0,NNE,4.6,-,N/A,,Overcast,30,2013-05-19 05:53:00